• In Russia
  • List of Countries
  • For 7 days
  • Water Temperature
  • Satellite Maps
  • Weather Map
  • Weather Widgets
  • user-avatar
    Login

    Hourly Weather Bregenz

    Today, 22 May, Monday

    Time Temperature Precipitation Wind Pressure Humidity
    00:00 +5°C° 0 mm 1 mps 647 mmHg 95%
    01:00 +5°C° 0 mm 1 mps 647 mmHg 95%
    02:00 +5°C° 0 mm 1 mps 647 mmHg 94%
    03:00 +4°C° 0 mm 1 mps 647 mmHg 94%
    04:00 +4°C° 0 mm 1 mps 647 mmHg 93%
    05:00 +6°C° 0 mm 1 mps 647 mmHg 89%
    06:00 +8°C° 0 mm 1 mps 648 mmHg 85%
    07:00 +10°C° 0 mm 1 mps 648 mmHg 80%
    08:00 +12°C° 0 mm 1 mps 649 mmHg 73%
    09:00 +14°C° 0 mm 1 mps 649 mmHg 65%
    10:00 +18°C° 0 mm 1 mps 650 mmHg 57%
    11:00 +18°C° 0 mm 1 mps 650 mmHg 54%
    12:00 +19°C° 0 mm 1 mps 650 mmHg 51%
    13:00 +18°C° 0 mm 2 mps 650 mmHg 47%
    14:00 +18°C° 0.1 mm 2 mps 649 mmHg 49%
    15:00 +18°C° 0.1 mm 2 mps 649 mmHg 51%
    16:00 +18°C° 0.1 mm 2 mps 649 mmHg 54%
    17:00 +16°C° 0.1 mm 2 mps 648 mmHg 64%
    18:00 +14°C° 0.1 mm 1 mps 648 mmHg 74%
    19:00 +13°C° 0.1 mm 1 mps 648 mmHg 84%
    20:00 +10°C° 0 mm 1 mps 647 mmHg 86%
    21:00 +8°C° 0 mm 1 mps 647 mmHg 89%
    22:00 +6°C° 0 mm 1 mps 646 mmHg 92%
    23:00 +6°C° 0 mm 1 mps 646 mmHg 92%

    Tomorrow, 23 May, Tuesday

    Time Temperature Precipitation Wind Pressure Humidity
    00:00 +6°C° 0 mm 1 mps 646 mmHg 91%
    01:00 +5°C° 0 mm 2 mps 647 mmHg 91%
    02:00 +5°C° 0 mm 2 mps 647 mmHg 90%
    03:00 +5°C° 0 mm 2 mps 646 mmHg 88%
    04:00 +5°C° 0 mm 2 mps 646 mmHg 87%
    05:00 +7°C° 0 mm 2 mps 647 mmHg 83%
    06:00 +9°C° 0 mm 1 mps 648 mmHg 79%
    07:00 +11°C° 0 mm 1 mps 648 mmHg 75%
    08:00 +13°C° 0 mm 1 mps 649 mmHg 67%
    09:00 +15°C° 0 mm 2 mps 650 mmHg 58%
    10:00 +17°C° 0 mm 2 mps 650 mmHg 49%
    11:00 +17°C° 0 mm 2 mps 650 mmHg 47%
    12:00 +18°C° 0 mm 2 mps 650 mmHg 45%
    13:00 +19°C° 0 mm 2 mps 651 mmHg 43%
    14:00 +19°C° 0 mm 2 mps 650 mmHg 45%
    15:00 +19°C° 0 mm 2 mps 650 mmHg 47%
    16:00 +18°C° 0 mm 2 mps 650 mmHg 49%
    17:00 +17°C° 0.1 mm 2 mps 650 mmHg 61%
    18:00 +15°C° 0.1 mm 2 mps 650 mmHg 72%
    19:00 +14°C° 0.1 mm 1 mps 649 mmHg 84%
    20:00 +11°C° 0.1 mm 1 mps 649 mmHg 88%
    21:00 +9°C° 0.1 mm 1 mps 649 mmHg 92%
    22:00 +6°C° 0.1 mm 1 mps 648 mmHg 96%
    23:00 +6°C° 0 mm 1 mps 648 mmHg 96%

    Day after tomorrow, 24 May, Wednesday

    Time Temperature Precipitation Wind Pressure Humidity
    00:00 +7°C° 0 mm 1 mps 649 mmHg 96%
    01:00 +7°C° 0 mm 1 mps 649 mmHg 96%
    02:00 +6°C° 0 mm 1 mps 648 mmHg 96%
    03:00 +6°C° 0 mm 1 mps 648 mmHg 96%
    04:00 +5°C° 0 mm 1 mps 648 mmHg 95%
    05:00 +7°C° 0 mm 1 mps 649 mmHg 93%
    06:00 +8°C° 0 mm 0 mps 649 mmHg 90%
    07:00 +10°C° 0 mm 0 mps 650 mmHg 87%
    08:00 +12°C° 0.1 mm 1 mps 650 mmHg 83%
    09:00 +13°C° 0.1 mm 1 mps 650 mmHg 80%
    10:00 +14°C° 0.1 mm 1 mps 651 mmHg 76%
    11:00 +15°C° 0.1 mm 2 mps 651 mmHg 72%
    12:00 +15°C° 0.1 mm 2 mps 651 mmHg 68%
    13:00 +16°C° 0.1 mm 2 mps 651 mmHg 64%
    14:00 +16°C° 0.1 mm 2 mps 650 mmHg 65%
    15:00 +16°C° 0.1 mm 2 mps 650 mmHg 65%
    16:00 +16°C° 0.1 mm 2 mps 650 mmHg 65%
    17:00 +14°C° 0.2 mm 2 mps 650 mmHg 72%
    18:00 +13°C° 0.2 mm 2 mps 650 mmHg 79%
    19:00 +10°C° 0.2 mm 2 mps 649 mmHg 86%
    20:00 +9°C° 0 mm 2 mps 649 mmHg 89%
    21:00 +8°C° 0 mm 1 mps 649 mmHg 92%
    22:00 +6°C° 0 mm 1 mps 649 mmHg 95%
    23:00 +6°C° 0 mm 1 mps 649 mmHg 95%

    25 May, Thursday

    Time Temperature Precipitation Wind Pressure Humidity
    00:00 +5°C° 0 mm 1 mps 648 mmHg 95%
    01:00 +5°C° 0 mm 1 mps 648 mmHg 95%
    02:00 +5°C° 0 mm 1 mps 648 mmHg 96%
    03:00 +4°C° 0 mm 1 mps 648 mmHg 96%
    04:00 +4°C° 0 mm 1 mps 647 mmHg 96%
    05:00 +6°C° 0 mm 1 mps 648 mmHg 93%
    06:00 +7°C° 0 mm 1 mps 648 mmHg 89%
    07:00 +9°C° 0 mm 1 mps 649 mmHg 85%
    08:00 +11°C° 0 mm 1 mps 649 mmHg 76%
    09:00 +13°C° 0 mm 2 mps 650 mmHg 66%
    10:00 +14°C° 0 mm 2 mps 650 mmHg 57%
    11:00 +15°C° 0 mm 2 mps 650 mmHg 53%
    12:00 +16°C° 0 mm 3 mps 650 mmHg 50%
    13:00 +17°C° 0 mm 3 mps 650 mmHg 47%
    14:00 +17°C° 0 mm 3 mps 650 mmHg 50%
    15:00 +17°C° 0 mm 3 mps 650 mmHg 52%
    16:00 +17°C° 0 mm 3 mps 650 mmHg 55%
    17:00 +14°C° 0 mm 3 mps 650 mmHg 64%
    18:00 +13°C° 0 mm 3 mps 649 mmHg 73%
    19:00 +11°C° 0 mm 3 mps 649 mmHg 82%
    20:00 +10°C° 0 mm 2 mps 649 mmHg 87%
    21:00 +8°C° 0 mm 2 mps 649 mmHg 92%
    22:00 +7°C° 0 mm 1 mps 648 mmHg 97%
    23:00 +6°C° 0 mm 1 mps 648 mmHg 97%

    26 May, Friday

    Time Temperature Precipitation Wind Pressure Humidity
    00:00 +6°C° 0 mm 1 mps 648 mmHg 97%
    01:00 +5°C° 0 mm 1 mps 647 mmHg 97%
    02:00 +4°C° 0 mm 1 mps 647 mmHg 96%
    03:00 +4°C° 0 mm 1 mps 647 mmHg 96%
    04:00 +3°C° 0 mm 1 mps 646 mmHg 95%
    05:00 +5°C° 0 mm 1 mps 647 mmHg 90%
    06:00 +8°C° 0 mm 1 mps 648 mmHg 85%
    07:00 +10°C° 0 mm 1 mps 649 mmHg 80%
    08:00 +12°C° 0 mm 2 mps 649 mmHg 71%
    09:00 +14°C° 0 mm 2 mps 649 mmHg 62%
    10:00 +16°C° 0 mm 3 mps 650 mmHg 53%
    11:00 +17°C° 0 mm 3 mps 650 mmHg 52%
    12:00 +18°C° 0 mm 3 mps 650 mmHg 50%
    13:00 +18°C° 0 mm 3 mps 650 mmHg 48%
    14:00 +18°C° 0 mm 3 mps 649 mmHg 50%
    15:00 +18°C° 0 mm 4 mps 649 mmHg 53%
    16:00 +18°C° 0 mm 4 mps 649 mmHg 55%
    17:00 +17°C° 0 mm 3 mps 649 mmHg 64%
    18:00 +14°C° 0 mm 3 mps 648 mmHg 72%
    19:00 +13°C° 0 mm 3 mps 648 mmHg 80%
    20:00 +11°C° 0 mm 3 mps 648 mmHg 85%
    21:00 +9°C° 0 mm 2 mps 648 mmHg 90%
    22:00 +7°C° 0 mm 2 mps 647 mmHg 95%
    23:00 +7°C° 0 mm 2 mps 647 mmHg 94%

    27 May, Saturday

    Time Temperature Precipitation Wind Pressure Humidity
    00:00 +7°C° 0 mm 2 mps 647 mmHg 94%
    01:00 +7°C° 0 mm 2 mps 647 mmHg 94%
    02:00 +6°C° 0 mm 2 mps 647 mmHg 94%
    03:00 +6°C° 0 mm 2 mps 647 mmHg 93%
    04:00 +6°C° 0 mm 2 mps 647 mmHg 93%
    05:00 +8°C° 0 mm 1 mps 647 mmHg 88%
    06:00 +10°C° 0 mm 1 mps 648 mmHg 83%
    07:00 +12°C° 0 mm 1 mps 649 mmHg 78%
    08:00 +14°C° 0 mm 1 mps 649 mmHg 69%
    09:00 +16°C° 0 mm 2 mps 650 mmHg 61%
    10:00 +18°C° 0 mm 2 mps 650 mmHg 52%
    11:00 +19°C° 0 mm 2 mps 650 mmHg 50%
    12:00 +19°C° 0 mm 3 mps 650 mmHg 48%
    13:00 +20°C° 0 mm 3 mps 650 mmHg 46%
    14:00 +20°C° 0 mm 3 mps 650 mmHg 47%
    15:00 +20°C° 0 mm 3 mps 650 mmHg 49%
    16:00 +19°C° 0 mm 3 mps 650 mmHg 50%
    17:00 +18°C° 0 mm 3 mps 650 mmHg 60%
    18:00 +16°C° 0 mm 2 mps 650 mmHg 69%
    19:00 +15°C° 0 mm 2 mps 649 mmHg 78%
    20:00 +12°C° 0 mm 2 mps 649 mmHg 83%
    21:00 +9°C° 0 mm 1 mps 648 mmHg 89%
    22:00 +7°C° 0 mm 1 mps 648 mmHg 94%
    23:00 +7°C° 0 mm 1 mps 648 mmHg 94%
    Show more